Location: Unspecified
(17.6330°N, 0.0000°E)
Time: 15:57:08
(UTC+00:00)

Tiros 1 despin weight - Pass Details

Date: 13 August 2020
Orbit: 593 x 642 km, 48.2° (Epoch: 23 September)

Event Time Altitude Azimuth Distance (km) Brightness Sun altitude
Exits shadow 04:05:15 54° 306° (NW) 758 ? -22.6°
Maximum altitude 04:05:23 54° 313° (NW) 755 ? -22.5°
Drops below altitude 10° 04:09:50 10° 31° (NNE) 1,975 ? -21.6°
Sets 04:12:10 0° 36° (NE) 2,872 ? -21.1°
